Location: Althorst
(53.6379°N, 10.7715°E)
Time: 16:02:29
(UTC+00:00)

RESURS DK-1 - Pass Details

Date: 10 December 2019
Orbit: 554 x 564 km, 69.9° (Epoch: 28 January)

Event Time Altitude Azimuth Distance (km) Brightness Sun altitude
Rises 16:27:55 0° 208° (SSW) 2,725 6.7 -12.4°
Reaches altitude 10° 16:30:06 10° 207° (SSW) 1,835 5.7 -12.7°
Maximum altitude 16:34:12 77° 122° (ESE) 577 2.3 -13.3°
Enters shadow 16:37:13 18° 38° (NE) 1,411 3.9 -13.7°
